Regional Weather Roundup
Issued by NWS

Current Version | Previous Version | Text Only | Print | Product List | Glossary On
Versions: 1 2 3 4 5 6 7 8 9 10 11 12 13 14 15 16 17 18 19 20 21 22 23 24 25 26 27 28 29 30 31 32 33 34 35 36 37 38 39 40 41 42 43 44 45 46 47 48 49 50
000
ASPQ40 PGUM 280612
RWRPQ
WEATHER ROUNDUP FOR THE MARIANAS AND MICRONESIA
NATIONAL WEATHER SERVICE TIYAN GU
400 PM CHST THU AUG 28 2014

GUZ001>004-280700-
MARIANA ISLANDS-

CITY           SKY/WX    TMP DP  RH WIND       PRES   REMARKS
GUAM AIRPORT   PTSUNNY   84  77  79 W8        29.83S HX  94
ANDERSEN AFB   PTSUNNY   82  72  69 NE7       29.83F
ROTA AIRPORT   MOSUNNY   84  77  79 NE7       29.84F HX  94
TINIAN AP      MOSUNNY   86  77  74 NE9       29.81F HX  97
SAIPAN AP      MOSUNNY   88  75  66 E10       29.83S HX  97

$$

PMZ161-280700-
REPUBLIC OF PALAU-

CITY           SKY/WX    TMP DP  RH WIND       PRES   REMARKS
KOROR AP       PTSUNNY   88  77  70 S9        29.81F HX 100
KOROR WSO      MOSUNNY   88  73  62 SW3       29.80F HX  96

$$

PMZ171>174-280700-
FEDERATED STATES OF MICRONESIA-

CITY           SKY/WX    TMP DP  RH WIND       PRES   REMARKS
YAP AIRPORT    PTSUNNY   84  77  79 VRB5      29.80S HX  94
CHUUK AP       PTSUNNY   88  81  79 VRB3      29.74R HX 105
POHNPEI AP     NOT AVBL
POHNPEI WSO    CLOUDY    86  77  74 SE5       29.76  HX  97
KOSRAE AP      NOT AVBL

$$

PMZ181-280700-
REPUBLIC OF THE MARSHALL ISLANDS-

CITY           SKY/WX    TMP DP  RH WIND       PRES   REMARKS
KWAJALEIN AP   PTSUNNY   86  73  66 S12       29.76R HX  93
MAJURO AP      NOT AVBL
MAJURO WSO     MOSUNNY   86  77  74 CALM      29.75R HX  97

$$



USA.gov is the U.S. government's official web portal to all federal, state and local government web resources and services.